This demonstration page uses our WeatherBlox Daily Observations layout. Learn more.

Left ArrowRight Arrow

39.29038, -76.61219

Hourly Observations for February 1, 2019

Temp ( °F °C ) Dew Point ( °F °C ) Humidity (%) Winds ( mph kmh ) Pressure ( in mb ) Visibility ( mi km ) Precip ( " mm )
12:54 am 00:54 undefined 19 -7.2 0 -17.8 43 43 undefined N/A 30.44 1031 N/A 0.00 0.00
1:54 am 01:54 undefined 19 -7.2 1 -17.2 45 45 undefined N/A 30.45 1031 N/A 0.00 0.00
2:54 am 02:54 undefined 20 -6.7 -3 -19.4 36 36 undefined N/A 30.46 1032 N/A 0.00 0.00
3:54 am 03:54 undefined 19 -7.2 -6 -21.1 32 32 undefined N/A 30.45 1031 N/A 0.00 0.00
4:54 am 04:54 undefined 19 -7.2 -4 -20 36 36 undefined N/A 30.45 1031 N/A 0.00 0.00
5:54 am 05:54 undefined 19 -7.2 -5 -20.6 34 34 undefined N/A 30.45 1031 N/A 0.00 0.00
6:54 am 06:54 undefined 19 -7.2 -5 -20.6 34 34 undefined N/A 30.46 1032 N/A 0.00 0.00
7:54 am 07:54 undefined 19 -7.2 -1 -18.3 41 41 undefined N/A 30.46 1032 N/A 0.00 0.00
8:54 am 08:54 undefined 17 -8.3 8 -13.3 68 68 undefined N/A 30.46 1031 N/A 0.00 0.00
9:54 am 09:54 undefined 17 -8.3 10 -12.2 74 74 undefined N/A 30.47 1032 N/A 0.01 0.25
10:54 am 10:54 undefined 18 -7.8 11 -11.7 74 74 undefined N/A 30.45 1031 N/A 0.02 0.51
11:54 am 11:54 undefined 18 -7.8 10 -12.2 71 71 undefined N/A 30.43 1031 N/A 0.01 0.25
12:54 pm 12:54 undefined 20 -6.7 13 -10.6 74 74 undefined N/A 30.40 1029 N/A 0.01 0.25
1:54 pm 13:54 undefined 21 -6.1 13 -10.6 71 71 undefined N/A 30.37 1028 N/A 0.01 0.25
2:54 pm 14:54 undefined 22 -5.6 14 -10 71 71 undefined N/A 30.36 1028 N/A 0.00 0.00
3:54 pm 15:54 undefined 22 -5.6 14 -10 71 71 undefined N/A 30.37 1028 N/A 0.00 0.00
4:54 pm 16:54 undefined 21 -6.1 15 -9.4 78 78 undefined N/A 30.37 1029 N/A 0.01 0.25
5:54 pm 17:54 undefined 21 -6.1 15 -9.4 78 78 undefined N/A 30.39 1029 N/A 0.01 0.25
6:54 pm 18:54 undefined 22 -5.6 14 -10 71 71 undefined N/A 30.41 1030 N/A 0.01 0.25
7:54 pm 19:54 undefined 22 -5.6 14 -10 71 71 undefined N/A 30.42 1030 N/A 0.00 0.00
8:54 pm 20:54 undefined 21 -6.1 15 -9.4 78 78 undefined N/A 30.44 1031 N/A 0.00 0.00
9:54 pm 21:54 undefined 21 -6.1 15 -9.4 78 78 undefined N/A 30.44 1031 N/A 0.00 0.00
10:54 pm 22:54 undefined 20 -6.7 14 -10 78 78 undefined N/A 30.44 1031 N/A 0.00 0.00
11:54 pm 23:54 undefined 19 -7.2 13 -10.6 77 77 undefined N/A 30.44 1031 N/A 0.00 0.00

Powered by AerisWeather